Weather Roundup
Issued by NWS Chicago, IL

Home | Current Version | Previous Version | Graphics & Text | Print | Product List | Glossary On
Versions: 1 2 3 4 5 6 7 8 9 10 11 12 13 14 15 16 17 18 19 20 21 22 23 24 25 26 27 28 29 30 31 32 33 34 35 36 37 38 39 40 41 42 43 44 45 46 47 48 49 50
386
NZUS59 KLOT 192108
HRRLOT

CHICAGO AREA WEATHER ROUNDUP
NATIONAL WEATHER SERVICE CHICAGO/ROMEOVILLE IL
300 PM CST SUN FEB 19 2017

NOTE: "FAIR" INDICATES FEW OR NO CLOUDS BELOW 12,000 FEET WITH NO
SIGNIFICANT WEATHER AND/OR OBSTRUCTIONS TO VISIBILITY.

* THESE STATIONS ARE NOT UNDER NWS QUALITY CONTROL. THEY ALSO MAY NOT
  REPORT WEATHER SUCH AS PRECIPITATION OR FOG.

ILZ005-006-012>014-019>023-192200-
NORTHEAST ILLINOIS

CITY           SKY/WX    TMP DP  RH WIND       PRES   REMARKS
OHARE          MOSUNNY   68  31  25 VRB3      30.04R
MIDWAY         PTSUNNY   65  31  28 E9        30.05R
AURORA         SUNNY     68  40  35 SE8       30.04S
LANSING*       SUNNY     65  40  39 CALM      30.06R
JOLIET*        SUNNY     68  42  38 S5        30.05R
WAUKEGAN       MOSUNNY   53  33  46 E8        30.05S
DUPAGE AIRPORT SUNNY     67  36  31 S7        30.03S
WHEELING       SUNNY     60  31  33 E6        30.06R
KANKAKEE*      SUNNY     64  45  51 CALM      30.07S
MORRIS*        SUNNY     67  40  37 CALM      30.03S
LEWIS AIRPORT* SUNNY     66  43  43 CALM      30.05R
NORTHERLY ISL    N/A     50  30  46 NE2         N/A
$$

WIZ051-052-058>065-066-070>072-192200-
SOUTHEAST WISCONSIN

CITY           SKY/WX    TMP DP  RH WIND       PRES   REMARKS
MILWAUKEE      PTSUNNY   53  31  42 SE9       30.06S
KENOSHA*       SUNNY     56  32  40 E8        30.06R
RACINE*        SUNNY     51  31  46 E8        30.07S
WAUKESHA       SUNNY     63  28  27 S6        30.04S
WEST BEND      SUNNY     59  32  36 SE8       30.03S
$$

INZ001>003-010>013-019-020-192200-
NORTHWEST INDIANA

CITY           SKY/WX    TMP DP  RH WIND       PRES   REMARKS
GARY*          MOSUNNY   57  28  33 NE5       30.07R
MICHIGAN CITY* NOT AVBL
RENSSELAER*    NOT AVBL
VALPARAISO     SUNNY     65  34  31 S8        30.07R
$$

LMZ740>746-192200-
SOUTHERN LAKE MICHIGAN

STATION/POSITION TIME  SKY/WX   TEMP WIND        PRES    VSBY
                                AIR  DIR/SP/G
                 (UTC)          (F)  (DEG/KT/KT) (MB)    (MI)
HARRISON CRIB    2040            48   80/  7/  7   N/A
BURNHAM HARBOR   2100            49   70/  3/  5   N/A
CALUMET HARBOR   2048            46   60/  5/  6 1017.6R
BURNS HARBOR     2040            44   70/  9/  9 1018.6S
MICHIGAN CITY    2040            42   20/  7/  7   N/A
$$

ABBREVIATIONS USED IN REMARKS
   TC - TEMPERATURE IN CELSIUS
  WCI - WIND CHILL INDEX
   HX - HEAT INDEX
  VSB - VISIBILITY
$$




USA.gov is the U.S. government's official web portal to all federal, state and local government web resources and services.